Regional Weather Roundup
Issued by NWS

Home | Current Version | Previous Version | Graphics & Text | Print | Product List | Glossary On
Versions: 1 2 3 4 5 6 7 8 9 10 11 12 13 14 15 16 17 18 19 20 21 22 23 24 25 26 27 28 29 30 31 32 33 34 35 36 37 38 39 40 41 42 43 44 45 46 47 48 49 50
000
ASUS45 KABQ 031901
RWRNM
NEW MEXICO REGIONAL WEATHER ROUNDUP
NATIONAL WEATHER SERVICE ALBUQUERQUE NM
100 PM MDT MON AUG 03 2015

NOTE: "FAIR" MEANS FEW OR NO CLOUDS BELOW 12,000 FEET AGL WITH NO
       SIGNIFICANT WEATHER OR OBSTRUCTIONS TO VISION.

      THIS PRODUCT IS RELEASED AS TWO VERSIONS.  ONE VERSION NEAR
      THE TOP OF THE HOUR CONTAINING PRELIMINARY DATA FROM ALBUQUERQUE
      AND OTHER STATIONS.  A FINAL VERSION WITH ADDITIONAL DATA IS
      ISSUED ABOUT 10 MINUTES AFTER THE HOUR.

NMZ501-503-504-510>518-032000-
NORTHWEST PLATEAU/NORTHCENTRAL MOUNTAINS

CITY           SKY/WX    TMP DP  RH WIND       PRES   REMARKS
FARMINGTON     SUNNY     78  54  43 W9        30.19F
LOS ALAMOS     MOSUNNY   70  55  59 NE3       30.29S
SANTA FE       MOSUNNY   78  53  41 VRB6      30.21F
TAOS           CLOUDY   N/A N/A N/A CALM      30.27F

$$
NMZ402-403-502-505>509-032000-
WESTCENTRAL MOUNTAINS/SOUTHWEST MOUNTAINS

CITY           SKY/WX    TMP DP  RH WIND       PRES   REMARKS
GALLUP         MOSUNNY   80  48  32 W3        30.26F
GRANTS         MOSUNNY   79  46  30 NW12G17   30.28S
SILVER CITY      N/A     84  50  30 N6        30.18F

$$
NMZ407-409-411-412-032000-
SOUTHERN DESERTS

CITY           SKY/WX    TMP DP  RH WIND       PRES   REMARKS
LORDSBURG      FAIR      88  54  31 W3G9      30.09F
DEMING         SUNNY     89  57  33 MISG      30.09F
LAS CRUCES     MOSUNNY   85  56  36 W6        30.12S
HOLLOMAN AFB   PTSUNNY   89  55  31 SW10G17   30.05F
ALAMOGORDO     MOSUNNY   88  55  33 SW7       30.08S
T OR C         MOSUNNY   87  56  34 MISG      30.11F

$$
NMZ519>523-032000-
CENTRAL VALLEYS/CENTRAL HIGHLANDS

CITY           SKY/WX    TMP DP  RH WIND       PRES   REMARKS
ALBUQUERQUE    MOSUNNY   82  54  37 N12       30.18F
DOUBLE EAGLE   MOSUNNY   81  55  41 W9        30.22S
MORIARTY ARPT    N/A     79  52  39 NW6       30.22S
CLINES CORNERS SUNNY     77  53  43 NW20      30.25S
BELEN          FAIR      85  51  30 NW7       30.17S
SOCORRO        FAIR      85  53  33 N5        30.13S

$$
NMZ524>526-539-540-032000-
SOUTHCENTRAL MOUNTAINS

CITY           SKY/WX    TMP DP  RH WIND       PRES   REMARKS
RUIDOSO        NOT AVBL

$$
NMZ527>531-032000-
NORTHEAST HIGHLANDS/NORTHEAST PLAINS

CITY           SKY/WX    TMP DP  RH WIND       PRES   REMARKS
RATON          NOT AVBL
CLAYTON        MOSUNNY   83  61  47 S9        30.08S

$$
NMZ532>537-032000-
EASTCENTRAL PLAINS

CITY           SKY/WX    TMP DP  RH WIND       PRES   REMARKS
TUCUMCARI      SUNNY     84  65  52 VRB3      30.03F
CANNON AFB     SUNNY     83  63  49 SW6       30.06F
CLOVIS AIRPORT MOSUNNY   84  63  48 E3        30.07F

$$
NMZ028-029-538-032000-
SOUTHEAST PLAINS

CITY           SKY/WX    TMP DP  RH WIND       PRES   REMARKS
ROSWELL        MOSUNNY   92  60  34 E6        30.01F
ARTESIA        MOSUNNY   90  59  35 CALM      30.01F
CARLSBAD       MOSUNNY   91  60  35 VRB3      29.99F
HOBBS          PTSUNNY   91  61  35 SE10      30.03F


$$



USA.gov is the U.S. government's official web portal to all federal, state and local government web resources and services.